Regional Weather Roundup
Issued by NWS Goodland, KS

Home | Current Version | Previous Version | Graphics & Text | Print | Product List | Glossary On
Versions: 1 2 3 4 5 6 7 8 9 10 11 12 13 14 15 16 17 18 19 20 21 22 23 24 25 26 27 28 29 30 31 32 33 34 35 36 37 38 39 40 41 42 43 44 45 46 47 48 49 50
000
ASUS43 KGLD 260808
RWRGLD

GOODLAND FORECAST AREA HOURLY WEATHER ROUNDUP
NATIONAL WEATHER SERVICE GOODLAND KS
200 AM MDT WED APR 26 2017

...OFFICIAL OBSERVATIONS...

CITY           SKY/WX    TMP DP  RH WIND       PRES   REMARKS
GOODLAND KS    CLOUDY    36  31  82 N23G29    29.76S
HILL CITY KS   CLOUDY    40  32  73 N14       29.74R
IMPERIAL NEB   CLOUDY    32  26  78 NW13      29.79F
MCCOOK NEB     CLOUDY    36  27  69 N29G37    29.75F
AKRON CO       CLEAR     29  27  92 NW13      29.79F WCI  19
BURLINGTON CO  NOT AVBL
LIMON CO       CLOUDY    31  30  96 NW20G28   29.79S WCI  19
$$

...UNOFFICIAL OBSERVATIONS...

CITY           SKY/WX    TMP DP  RH WIND       PRES   REMARKS
LENORA KS        N/A     37  32  82 MISG        N/A
NORTON KS      CLOUDY    37  27  65 NW21G26   29.73R
SHARON SPRINGS   N/A     38  34  86 N15         N/A
TRENTON NEB      N/A     34  32  92 N13G20      N/A
KIT CARSON CO    N/A     37  33  87 MISG        N/A
YUMA CO        MOCLDY    32  28  86 NW17      29.79F
$$



USA.gov is the U.S. government's official web portal to all federal, state and local government web resources and services.